Location: Administration Building
(43.1583°N, 93.1330°W)
Time: 00:16:23
(UTC+00:00)

Daily predictions for brighter satellites

Satellite Brightness Start Highest point End
(mag) Time Altitude Azimuth Time Altitude Azimuth Time Altitude Azimuth
CZ-4 R/B 4.4 00:02:14 10° SSE 00:06:07 53° ENE 00:10:00 10° N
MOS 1 Rocket 3.0 00:03:39 10° SSE 00:07:51 65° ENE 00:12:06 10° N
Cosmos 1606 3.3 00:06:26 10° SSW 00:09:00 38° WNW 00:11:36 10° N
IRS-P3 4.2 00:03:48 10° SSE 00:09:08 86° WSW 00:14:30 10° NNW
ARIANE 6 FM1 Upper Stage 3.5 00:09:03 10° WSW 00:12:55 45° NW 00:16:28 12° NNE
Cosmos 909 Rocket 4.2 00:06:59 10° NW 00:13:18 79° WSW 00:19:51 10° SSE
Cosmos 2016 Rocket 4.0 00:08:01 10° S 00:14:14 85° E 00:20:35 10° N
CZ-2D R/B 3.3 00:15:31 10° SSE 00:19:29 67° ENE 00:23:34 10° N
SPOT 1/Viking Rocket 3.4 00:17:37 10° SSE 00:22:44 71° ENE 00:27:53 10° N
Cosmos 1782 Rocket 3.5 00:18:53 10° S 00:23:15 62° E 00:27:39 10° NNE
Tiangong -2.0 00:20:25 10° W 00:23:35 65° S 00:24:28 41° ESE
ARIANE 5 R/B 3.8 00:20:16 10° S 00:24:58 41° W 00:29:42 10° NNW
IRAS Rocket 4.1 00:22:30 10° SSE 00:28:04 75° ENE 00:33:39 10° NNW
Cosmos 1844 Rocket 4.2 00:26:24 10° WSW 00:31:26 34° NW 00:36:30 10° N
SKYMED 2 3.6 00:27:34 10° N 00:31:57 82° WNW 00:36:17 10° SSW
COSMO-SKYMED 1 2.3 00:28:51 10° NNE 00:32:58 73° E 00:37:05 10° S
SL-4 R/B 2.6 00:29:49 10° NW 00:33:00 31° NNE 00:33:09 31° NNE
Cosmos 2061 Rocket 3.9 00:27:25 10° S 00:33:46 80° E 00:40:05 10° N
Cosmos 1140 Rocket 3.7 00:29:54 10° S 00:34:48 44° ESE 00:36:52 30° NE
SL-19 R/B 4.0 00:30:03 10° SSE 00:35:23 73° ENE 00:40:35 10° N
Geosat 3.9 00:31:49 10° SSE 00:36:49 90° WSW 00:41:51 10° NNW
Cosmos 1833 Rocket 2.9 00:37:03 10° NNW 00:42:31 48° ENE 00:44:22 35° ESE
Cosmos 1300 Rocket 3.8 00:39:45 10° SSW 00:44:08 70° W 00:48:33 10° N
Cosmos 1975 Rocket 2.9 00:42:17 10° N 00:46:35 65° E 00:50:53 10° SSE
Cosmos 1441 Rocket 3.6 00:44:39 10° NNW 00:47:56 53° W 00:51:11 10° S
ATLAS 5 CENTAUR R/B 3.1 00:47:01 10° NNW 00:49:25 23° NNE 00:49:25 23° NNE
Resurs 01 Rocket 3.2 00:58:12 23° NNE 00:58:12 23° NNE 01:00:00 10° N
Cosmos 1891 Rocket 4.4 00:55:01 10° S 01:01:21 68° E 01:07:47 10° NNE
Cosmos 2084 Rocket 4.3 01:01:39 10° SSW 01:04:21 37° S 01:04:21 37° S
NOSS 3-4 (A) 4.5 01:11:12 10° NW 01:18:04 57° WSW 01:26:03 10° SSE
NOSS 3-4 (C) 4.4 01:11:16 10° NW 01:18:09 58° WSW 01:26:07 10° SSE
Cosmos 2082 Rocket 4.1 01:22:37 10° N 01:24:13 17° N 01:24:13 17° N
ATLAS CENTAUR R/B 3.3 01:25:35 10° W 01:27:55 22° WNW 01:27:55 22° WNW
Cosmos 2278 Rocket 4.1 01:23:53 10° S 01:25:12 17° S 01:25:12 17° S
USA 281 3.2 01:39:32 56° S 01:41:03 81° WSW 01:47:41 10° NNW
CZ-4C R/B 4.1 01:38:35 10° WNW 01:41:56 19° NNW 01:43:35 17° N
SL-12 R/B(2) 4.1 01:34:30 10° SSW 01:42:17 83° ESE 01:44:53 52° NE
BREEZE-M DEB (TANK) 4.5 01:52:36 10° WNW 01:54:04 28° WNW 01:54:04 28° WNW
Cosmos 1943 Rocket 4.3 02:00:52 10° SSW 02:02:00 16° SSW 02:02:00 16° SSW
ACS3 Solar Sail 3.9 08:58:29 10° NNE 09:00:18 19° NE 09:00:18 19° NE
USA 234 4.2 09:15:49 10° E 09:20:57 43° NE 09:20:57 43° NE
Cosmos 2219 Rocket 3.8 09:42:02 28° NNE 09:42:02 28° NNE 09:44:39 10° NNE
NOSS 3-1 (C) 4.5 09:49:30 32° E 09:49:30 32° E 09:53:01 10° NE
ADEOS Rocket 4.0 09:42:15 10° NNE 09:46:25 44° N 09:46:25 44° N
COSMOS 2428 4.3 09:47:51 24° SE 09:50:03 31° ESE 09:54:59 10° NE
Cosmos 1727 Rocket 4.2 10:07:46 10° S 10:13:53 68° E 10:20:04 10° NNE
Cosmos 2278 Rocket 3.9 10:17:17 11° N 10:21:56 30° NE 10:26:50 10° ESE
Cosmos 2333 Rocket 4.1 10:27:38 16° N 10:27:38 16° N 10:29:14 10° N
Cosmos 2237 Rocket 4.3 10:21:11 10° SSE 10:25:42 25° ESE 10:30:13 10° NE
USA 267 3.4 10:22:51 10° NE 10:29:10 54° NNW 10:29:41 52° NW
NOSS 3-1 (A) 4.3 10:29:28 16° S 10:32:33 34° ESE 10:37:15 10° NE
COSMOS 2455 4.2 10:37:41 24° NNW 10:37:41 24° NNW 10:41:06 10° NNE
Cosmos 2173 Rocket 4.1 10:31:24 10° N 10:37:30 70° E 10:43:33 10° SSE
Cosmos 44 Rocket 3.8 10:39:36 37° N 10:41:26 60° NE 10:46:31 10° SE
Cosmos 2360 Rocket 3.9 10:46:13 19° NNW 10:46:13 19° NNW 10:48:26 10° N
Cosmos 2322 Rocket 4.0 10:46:46 17° NNW 10:46:46 17° NNW 10:48:42 10° N
Cosmos 1908 Rocket 4.5 10:41:30 10° N 10:45:49 49° ENE 10:50:06 10° SSE
Cosmos 1153 Rocket 4.4 10:40:34 10° NNW 10:46:39 61° W 10:52:46 10° S
ACS3 Solar Sail 3.0 10:41:37 10° N 10:44:27 25° NNW 10:44:27 25° NNW
Gbstr 26 Del rocket 3.2 10:47:30 69° WNW 10:47:57 75° NNW 10:53:42 10° NE
Cosmos 1000 Rocket 4.4 10:42:14 10° S 10:48:33 86° W 10:54:56 10° N
Meteor 2-5 Rocket 4.4 10:43:08 10° S 10:48:55 58° E 10:54:40 10° NNE
SL-16 R/B 4.4 10:53:26 10° NNW 10:53:26 10° NNW 10:53:36 10° NNW
Cosmos 2123 Rocket 4.1 10:49:00 10° S 10:55:12 75° E 11:01:23 10° N
PAYLOAD A 4.1 10:52:17 10° N 10:57:37 61° WNW 11:00:42 25° SW
Cosmos 1943 Rocket 2.8 10:52:28 11° NNW 10:57:45 55° ENE 11:03:08 10° SE
CZ-2C R/B 2.7 10:53:54 10° N 10:58:23 47° WNW 10:58:23 47° WNW
SJ 16-02 4.2 10:57:31 10° NNE 10:59:22 12° NE 11:01:13 10° E
Cosmos 1140 Rocket 3.4 10:55:53 21° NNW 10:59:24 88° ENE 11:04:30 10° SSE
ARGOS 3.5 10:57:09 10° N 11:02:07 41° WNW 11:02:07 41° WNW
USA 234 3.2 10:58:20 10° SE 11:04:50 66° SW 11:08:18 30° WNW
Meteor 2-14 Rocket 4.5 11:00:40 10° SSW 11:06:35 52° WNW 11:12:31 10° N
Cosmos 2016 Rocket 4.2 11:02:32 10° N 11:08:56 74° E 11:15:16 10° SSE
Meteor 2-21 Rocket 4.4 11:04:45 10° S 11:10:53 87° W 11:17:01 10° N
Iridium 4 Rocket 3.4 11:07:04 10° N 11:11:21 63° E 11:15:27 10° SSE
NOSS 2-1 (C) 4.1 11:18:34 26° NNW 11:18:34 26° NNW 11:20:24 10° NNE
NOSS 2-1 (D) 4.3 11:22:23 23° NNW 11:22:23 23° NNW 11:24:03 10° NNE
Timation 2 Rocket 4.0 11:15:16 10° NNW 11:21:56 78° WSW 11:28:16 10° SSE
COSMO-SKYMED 1 3.2 11:18:46 10° SSE 11:22:47 54° ENE 11:26:49 10° N
IRS-1D 3.3 11:18:24 10° NNE 11:23:24 85° WNW 11:28:19 10° SSW
Cosmos 2219 Rocket 3.5 11:23:45 20° NW 11:23:45 20° NW 11:27:40 10° N
SL-08 RB Rocket 4.4 11:20:34 10° N 11:24:34 31° WNW 11:24:34 31° WNW
USA 276 1.7 11:27:18 58° SSW 11:27:18 58° SSW 11:30:01 10° SE
SKYMED 2 3.5 11:23:06 10° SSE 11:27:27 88° ENE 11:31:49 10° NNW
Cosmos 2061 Rocket 4.3 11:24:05 10° N 11:30:18 70° E 11:36:27 10° SSE
Cosmos 1328 4.0 11:29:37 24° SW 11:31:15 37° WNW 11:34:41 10° N
Cosmos 2100 Rocket 4.3 11:26:48 10° NNW 11:32:31 42° W 11:38:14 10° SSW
COSMOS 2428 3.1 11:29:57 16° WSW 11:34:06 41° WNW 11:39:29 10° NNE
NOSS 0 Rocket 3.9 11:32:41 10° SW 11:38:45 61° WNW 11:44:52 10° NNE
NOSS 3-1 (C) 3.8 11:36:52 23° W 11:38:55 32° NW 11:43:59 10° NNE
Cosmos 2322 4.4 11:38:06 18° WSW 11:41:26 32° NW 11:46:29 10° N
Cosmos 407 Rocket 3.3 11:37:02 10° NNW 11:42:09 76° WSW 11:47:13 10° SSE
Cosmos 1939 Rocket 3.8 11:39:17 10° NNW 11:42:26 25° WNW 11:43:13 23° W
Cosmos 1703 Rocket 4.0 11:40:07 10° SW 11:44:10 38° WNW 11:48:17 10° N
BlueWalker 3 2.1 11:42:58 25° WNW 11:44:45 50° SW 11:48:14 10° SE
Helios 1A Rocket 2.5 11:43:25 10° S 11:46:43 52° WSW 11:50:03 10° NNW
Cosmos 1980 3.7 11:47:30 10° SW 11:53:05 61° WNW 11:58:42 10° NNE
USA 59 Rocket 1.3 11:53:47 13° NW 11:53:47 13° NW 11:55:04 10° N
